Regional Weather Roundup
Issued by NWS Wakefield, VA

Home | Current Version | Previous Version | Graphics & Text | Print | Product List | Glossary On
Versions: 1 2 3 4 5 6 7 8 9 10 11 12 13 14 15 16 17 18 19 20 21 22 23 24 25 26 27 28 29 30 31 32 33 34 35 36 37 38 39 40 41 42 43 44 45 46 47 48 49 50
754
ASUS41 KAKQ 251315
RWRAKQ

REGIONAL WEATHER ROUNDUP
NATIONAL WEATHER SERVICE WAKEFIELD VA
900 AM EDT WED APR 25 2018

Note: "fair" indicates few or no clouds below 12,000 feet with no
significant weather and/or obstructions to visibility. * = Denotes
station may not report precipitation (e.g., rain,snow,etc.),
thunder or fog.

VAZ042-051-052>054-056-251400-
NORTHERN VIRGINIA

CITY           SKY/WX    TMP DP  RH WIND       PRES   REMARKS
WASH NATIONAL  LGT RAIN  58  56  93 NE9       29.79S VSB 3/4
DULLES         FOG       54  54 100 N8        29.79F VSB 1/2
FORT BELVOIR   CLOUDY    58  57  98 NW3       29.78S FOG
QUANTICO       LGT RAIN  57  57 100 N6        29.78F FOG
FREDERICKSBRG* LGT RAIN  56  56 100 N3        29.77S
STAFFORD*      CLOUDY    57  57 100 N6        29.82S FOG
WARRENTON      CLOUDY    55  52  89 N5        29.79S FOG
CULPEPER*      DRIZZLE   55  53  94 N8        29.80S
MANASSAS*      LGT RAIN  54  53  97 N9        29.79F
LEESBURG*      CLOUDY    52  52 100 N9        29.81F FOG
WINCHESTER     CLOUDY    50  50 100 N5        29.84S FOG
FRONT ROYAL*   CLOUDY    50  50 100 CALM      29.82F
LURAY*         CLOUDY    52  52 100 NE6       29.82F
$$

VAZ048-049-060>072-079>083-251400-
CENTRAL AND SOUTH CENTRAL VIRGINIA

CITY           SKY/WX    TMP DP  RH WIND       PRES   REMARKS
RICHMOND       FOG       59  59 100 E3        29.75S VSB 1/2
CHESTERFIELD*  CLOUDY    59  59 100 N5        29.75F FOG
PETERSBURG*    CLOUDY    62  59  90 CALM      29.75S
HANOVER        FOG       58  58 100 CALM      29.77S VSB 1
TAPPAHANNOCK*  CLOUDY    60  60  99 CALM      29.76S
QUINTON*       CLOUDY    58  58 100 CALM      29.75S FOG
CHARLOTTSVILLE CLOUDY    57  55  93 N3        29.78F
GORDONSVILLE*  CLOUDY    54  54 100 NE6       29.78S
ORANGE*        CLOUDY    52  52 100 N6        29.79S FOG
LOUISA*        LGT RAIN  53  52  99 N8        29.82S FOG
BUMPASS*       NOT AVBL
FARMVILLE*     CLOUDY   N/A N/A N/A N6        29.76F FOG
CREWE*         CLOUDY    55  55 100 CALM      29.76S
FORT PICKETT*  CLOUDY    56  56 100 CALM      29.75S VSB 1
CHASE CITY*    CLOUDY    56  56 100 N3        29.75S
CLARKSVILLE*   CLOUDY    59  59 100 CALM      29.74S
SOUTH HILL*    CLOUDY    60  60 100 CALM      29.79F
LAWRENCEVILLE* CLOUDY    62  61  97 CALM      29.74S
EMPORIA*         N/A     61  61 100 CALM      29.76S
$$

VAZ088>098-251400-
SOUTHEAST VIRGINIA

CITY           SKY/WX    TMP DP  RH WIND       PRES   REMARKS
NORFOLK        CLOUDY    63  62  97 S6        29.73F
VIRGINIA BEACH PTSUNNY   62  62 100 S6        29.73F
NORFOLK NAVAL  PTSUNNY   62  61  96 VRB3      29.75F FOG
WEST POINT*    CLOUDY    60  58  94 CALM      29.75F
SALUDA*        CLOUDY    56  56 100 CALM      29.75F
NEWPORT NEWS   CLOUDY    62  59  90 SW6       29.73F
LANGLEY AFB    CLOUDY    61  61 100 S5        29.74F FOG
FORT EUSTIS    CLOUDY    61  60  98 S5        29.72F FOG
WILLIAMSBURG*  PTSUNNY   61  61 100 CALM      29.75F
HR EXEC AP*    CLOUDY    61  60  97 SW8       29.75F
FRANKLIN*      CLOUDY    61  61  98 CALM      29.75F
US460-WAKEFLD  CLOUDY    62  61  96 CALM      29.74F FOG
$$

VAZ020-022-025-037-045-251400-
WEST CENTRAL AND SOUTHWEST VIRGINIA

CITY           SKY/WX    TMP DP  RH WIND       PRES   REMARKS
STAUNTON*      DRIZZLE   51  50  95 N9        29.83F
WAYNESBORO*    CLOUDY    49  49 100 N8        29.81F
HOT SPRINGS VA CLOUDY    39  39 100 NW8       29.82S FOG
LYNCHBURG      CLOUDY    53  52  96 N7        29.77S
DANVILLE       CLOUDY    55  55 100 N7        29.75F FOG
SOUTH BOSTON*  CLOUDY    55  54  95 N6        29.75F
MARTINSVILLE   CLOUDY    54  53  96 N5        29.81R FOG
ROANOKE        LGT RAIN  55  51  86 NE3       29.82R
BLACKSBURG     CLOUDY    52  52  99 CALM      29.85R
DUBLIN*        LGT RAIN  54  52  94 NW5       29.84S
MARION*        DRIZZLE   54  53  97 W9        29.87R
HILLSVILLE*    DRIZZLE   51  50  96 N9        29.82R
RICHLANDS*     CLOUDY    51  28  41 NW6       29.87R
WISE*          CLOUDY    52  52 100 NW7       29.90S
ABINGDON*      CLOUDY    55  52  92 NW6       29.88R
$$

MDZ021>025-VAZ099-100-251400-
SOUTHERN MARYLAND AND THE DELMARVA PENINSULA

CITY           SKY/WX    TMP DP  RH WIND       PRES   REMARKS
PATUXENT RIVER FOG       59  58  96 E3        29.76F VSB 1/4
BAY BRIDGE APT FOG       57  57 100 N7        29.78F VSB 1/2
LEONARDTOWN    CLOUDY    59  57  94 E5        29.78S VSB 1/2
DOVER          CLOUDY    57  56  98 NE8       29.77F
GEORGETOWN     CLOUDY    60  58  92 VRB3      29.76F FOG
EASTON         FOG       59  59 100 E6        29.80F VSB 1
CAMBRIDGE      CLOUDY    61  59  94 E6        29.76S
SALISBURY      CLOUDY    58  58 100 E3        29.75F FOG
TANGIER        FAIR      59  59 100 E5        29.74F
OCEAN CITY     CLOUDY    55  55 100 CALM      29.76F FOG
WALLOPS ISLAND FOG       61  61 100 S7        29.75F VSB 1/2
ACCOMACK*      CLOUDY    59  59  99 S7        29.74F FOG
$$

NCZ012>017-030>032-251400-
NORTH CENTRAL AND EASTERN NORTH CAROLINA

CITY           SKY/WX    TMP DP  RH WIND       PRES   REMARKS
ROANOKE RAPIDS CLOUDY    61  61 100 CALM      29.74F FOG
RALEIGH        CLOUDY    61  60  97 S3        29.74F
ELIZABETH CITY PTSUNNY   65  63  93 SW13      29.75S
AHOSKIE*       CLOUDY    61  61 100 CALM      29.75S FOG
EDENTON*       NOT AVBL
CURRITUCK*     NOT AVBL
KILL DEVIL HLS FAIR      65  62  87 MISG      29.76S
MANTEO         FAIR      63  61  94 SW7       29.78R
CAPE HATTERAS  FAIR      68  64  87 S9        29.79S
TARBORO*       NOT AVBL
GOLDSBORO      MOSUNNY   64  61  88 SW8       29.73F
WASHINGTON     CLOUDY    63  61  91 SW7       29.76S
GREENVILLE     PTSUNNY   63  61  94 SW5       29.78S
NEW BERN       FAIR      64  61  90 S8        29.78S
WILMINGTON     FAIR      66  58  75 SW12      29.77F
$$

VAZ048-251400-
ELSEWHERE

CITY           SKY/WX    TMP DP  RH WIND       PRES   REMARKS
HARRISBURG PA  LGT RAIN  55  53  93 NE3       29.82F FOG
BALTIMORE      DRZL/FOG  57  57 100 NE9       29.78F VSB 1
ANNAPOLIS      FOG       59  59 100 NE6       29.77F VSB 1
ANDREWS AFB    CLOUDY    57  57 100 NE6       29.77S FOG
PHILADELPHIA   DRIZZLE   57  56  96 E7        29.82F FOG
HENDERSON NC   CLOUDY    58  58  97 CALM      29.74F FOG
GREENSBORO     DRIZZLE   54  54 100 N7        29.75S FOG
ROCKY MOUNT    CLOUDY    62  60  93 SW5       29.74F
$$

VAZ100-251400-
MARINE

STATION/POSITION TIME  TEMP    WIND        PRES    WAVE   SWELL
                       AIR SEA DIR/SP/G            HT/PER HT/PER
                 (UTC) (F)     (DEG/KT/KT) (MB)    (FT/S) (FT/S)
BRANDYWINE LGT   1242   54     120/ 24/ 26 1008.1F
CAPE MAY NJ      1248   55 51  120/ 15/ 18 1007.7F
LEWES DE         1242   55 51  130/ 10/ 14 1007.7F
15NM E FENWICK I 1250   48 47  130/  4/  6 1008.2F   8/10   8/10
OCEAN-CITY-INLET 1242   52 50  180/  4/  5 1008.4F
WACHAPREAGUE VA  1242   56 56  180/  5/  7 1007.5F
THOMAS POINT MD  1300   55 53   10/ 11/ 11 1009.0F
GOOSES REEF MD   1300   55      10/  4/  6 1008.4
COVE POINT MD    1242   57     350/  3/  4 1008.4F
SOLOMONS ISLAND  1242   58 54   60/  4/  5 1007.5S
BISHOPS HEAD MD  1242   58 57   90/  7/  8 1008.0F
PINEY POINT MD   1242           CALM  /  1   N/A
POTOMAC MD       1300   56 53   60/  4/  4 1008.7    1
CAMBRIDGE MD     1242   58 55              1008.7F
LEWISETTA VA     1242   56 55   80/  3/  4 1007.5F
RAPPAHANNOCK LGT 1242          140/  7/  8 1007.7S
YORK RVR RNG VA  1242   56      CALM  /  1 1007.6F
YORKTOWN VA      1242   56 56   40/  2/  3 1006.7F
DOMINION TERM VA 1242   59     120/  6/  7 1007.2F
KIPTOPEKE VA     1242      55  170/  7/  8   N/A
CAPE HENRY VA    1242   60     180/  4/  6   N/A
WILLOUBY STN VA  1242   59     210/  2/  2 1007.1F
S CRANEY ISL VA  1242   60     190/  2/  4 1007.0F
CAPE HENRY BUOY  1300      53                N/A     6/11   3/11
64NM E OF VA BCH 1250   52 49  150/  8/ 10 1008.7F  12/10  11/10
DUCK PIER NC     1242   61 50  180/  8/ 10 1007.1F
44100 DUCK FRF   1145      52                N/A    10/10   5/11
44056 DUCK FRF   1300      52                N/A     7/11   5/11
OREGON INLET NC  1242   61 54  170/  9/ 11 1008.1R
HATTERAS NC      1242   67 63  190/  5/  8 1008.4R
DIAMOND SHLS NC  1300   70 70  220/ 12/ 16 1009.3
CAPE LOOKOUT NC  1300          210/  7/ 11 1009.3R
$$




USA.gov is the U.S. government's official web portal to all federal, state and local government web resources and services.